CW1621 Weather Reports


time (UTC)temp
C
wind
direction
speed
KPH
gust
KPH
rain 1hr
cm
rain 24hr
cm
rain mn
cm
humidity
%
barometer
mb
20260503050604 16 330 1.6 3.2 0.00 0.00 0.00 49 1015.7
20260503050103 16 330 3.2 4.8 0.00 0.00 0.00 48 1015.7
20260503045603 16 330 1.6 3.2 0.00 0.00 0.00 48 1015.7
20260503045103 16 330 1.6 3.2 0.00 0.00 0.00 48 1015.7
20260503044603 16 330 1.6 3.2 0.00 0.00 0.00 47 1015.7
20260503044103 16 330 0.0 4.8 0.00 0.00 0.00 47 1015.6
20260503043604 16 330 1.6 4.8 0.00 0.00 0.00 47 1015.4
20260503043104 16 330 1.6 3.2 0.00 0.00 0.00 46 1015.4
20260503042603 16 330 3.2 4.8 0.00 0.00 0.00 46 1015.4
20260503042103 16 330 1.6 4.8 0.00 0.00 0.00 47 1015.4
20260503041603 16 331 1.6 4.8 0.00 0.00 0.00 47 1015.4
20260503040604 16 311 1.6 4.8 0.00 0.00 0.00 48 1015.8
20260503040103 16 309 3.2 4.8 0.00 0.00 0.00 48 1015.7
20260503035603 16 307 3.2 4.8 0.00 0.00 0.00 47 1015.6
20260503035104 16 305 1.6 4.8 0.00 0.00 0.00 48 1015.6
20260503034603 16 286 3.2 4.8 0.00 0.00 0.00 48 1015.6
20260503034103 16 282 1.6 4.8 0.00 0.00 0.00 48 1015.7
20260503033603 16 282 3.2 4.8 0.00 0.00 0.00 50 1015.7
20260503033104 16 282 3.2 4.8 0.00 0.00 0.00 53 1015.6
20260503032604 16 282 4.8 4.8 0.00 0.00 0.00 54 1015.2
20260503032104 16 282 4.8 4.8 0.00 0.00 0.00 53 1015.1
20260503031603 17 282 4.8 8.0 0.00 0.00 0.00 51 1015.2
20260503030604 17 282 4.8 4.8 0.00 0.00 0.00 51 1015.6
20260503030103 17 282 4.8 8.0 0.00 0.00 0.00 51 1015.3
20260503025603 17 282 8.0 8.0 0.00 0.00 0.00 48 1015.4
20260503024604 18 282 4.8 4.8 0.00 0.00 0.00 49 1015.3
20260503024104 18 282 4.8 8.0 0.00 0.00 0.00 48 1015.2
20260503023603 18 282 8.0 8.0 0.00 0.00 0.00 49 1015.4
20260503022604 18 284 6.4 8.0 0.00 0.00 0.00 50 1015.4
20260503022103 18 284 4.8 4.8 0.00 0.00 0.00 50 1015.3
20260503021603 18 283 6.4 8.0 0.00 0.00 0.00 49 1015.1
20260503020603 20 289 4.8 4.8 0.00 0.00 0.00 45 1015.5
20260503015103 21 311 1.6 4.8 0.00 0.00 0.00 43 1015.3
20260503014604 21 311 1.6 3.2 0.00 0.00 0.00 40 1014.9
20260503014104 22 311 1.6 4.8 0.00 0.00 0.00 41 1015.0
20260503013603 22 333 3.2 4.8 0.00 0.00 0.00 41 1014.9
20260503013103 22 333 1.6 4.8 0.00 0.00 0.00 40 1014.8
20260503012103 23 335 3.2 8.0 0.00 0.00 0.00 37 1014.8
20260503011604 23 343 1.6 4.8 0.00 0.00 0.00 37 1014.8
20260503011103 23 321 1.6 4.8 0.00 0.00 0.00 37 1014.8
20260503010603 22 343 3.2 8.0 0.00 0.00 0.00 38 1015.1
20260503005603 22 5 1.6 4.8 0.00 0.00 0.00 36 1015.1
20260503004603 23 68 1.6 3.2 0.00 0.00 0.00 34 1015.0
20260503004103 22 75 1.6 4.8 0.00 0.00 0.00 35 1015.2
20260503003604 22 81 0.0 3.2 0.00 0.00 0.00 35 1015.2
20260503003103 22 81 1.6 4.8 0.00 0.00 0.00 33 1015.3
20260503002604 23 79 4.8 8.0 0.00 0.00 0.00 36 1014.9
20260503001603 23 328 1.6 8.0 0.00 0.00 0.00 36 1014.9
20260503001103 23 3 1.6 4.8 0.00 0.00 0.00 36 1014.9
20260503000603 22 120 0.0 3.2 0.00 0.00 0.00 38 1015.1
20260503000104 21 117 1.6 3.2 0.00 0.00 0.00 35 1015.3
20260502235604 21 117 1.6 3.2 0.00 0.00 0.00 36 1015.3
20260502235103 21 117 1.6 4.8 0.00 0.00 0.00 36 1015.3
20260502234603 21 117 3.2 4.8 0.00 0.00 0.00 36 1015.4
20260502233603 21 112 3.2 8.0 0.00 0.00 0.00 35 1015.4
20260502233103 21 98 1.6 8.0 0.00 0.00 0.00 36 1015.4
20260502232103 22 58 3.2 8.0 0.00 0.00 0.00 34 1015.5
20260502231603 21 353 1.6 8.0 0.00 0.00 0.00 36 1015.7
20260502230603 21 98 3.2 8.0 0.00 0.00 0.00 34 1016.0
20260502230104 21 83 4.8 8.0 0.00 0.00 0.00 35 1015.8
20260502225603 21 102 8.0 11.3 0.00 0.00 0.00 34 1015.8
20260502225103 21 123 4.8 11.3 0.00 0.00 0.00 33 1015.9
20260502224603 21 84 9.7 12.9 0.00 0.00 0.00 34 1016.0
20260502223603 22 136 3.2 8.0 0.00 0.00 0.00 36 1016.0
20260502223103 21 14 6.4 14.5 0.00 0.00 0.00 34 1016.1
20260502222603 21 28 6.4 9.7 0.00 0.00 0.00 34 1016.4
20260502222104 21 65 6.4 11.3 0.00 0.00 0.00 33 1016.5
20260502221603 21 87 6.4 14.5 0.00 0.00 0.00 35 1016.5
20260502221103 21 67 8.0 12.9 0.00 0.00 0.00 33 1016.4
20260502220603 21 52 8.0 19.3 0.00 0.00 0.00 31 1016.4
20260502220104 21 57 4.8 14.5 0.00 0.00 0.00 36 1016.4
20260502215604 21 60 4.8 9.7 0.00 0.00 0.00 34 1016.5
20260502215103 21 82 8.0 11.3 0.00 0.00 0.00 34 1016.5
20260502214104 21 82 4.8 22.5 0.00 0.00 0.00 34 1016.5
20260502213603 21 84 11.3 19.3 0.00 0.00 0.00 34 1016.6
20260502212603 21 83 8.0 16.1 0.00 0.00 0.00 30 1016.6
20260502212103 21 70 9.7 19.3 0.00 0.00 0.00 37 1016.6
20260502211604 21 53 6.4 16.1 0.00 0.00 0.00 37 1016.7
20260502211103 21 76 11.3 16.1 0.00 0.00 0.00 36 1016.9
20260502210604 20 88 8.0 14.5 0.00 0.00 0.00 39 1016.8
20260502210104 20 101 8.0 16.1 0.00 0.00 0.00 37 1016.9
20260502205603 21 107 3.2 14.5 0.00 0.00 0.00 35 1016.8
20260502205104 21 72 8.0 16.1 0.00 0.00 0.00 39 1016.8
20260502204604 20 33 4.8 12.9 0.00 0.00 0.00 42 1016.9
20260502204103 20 102 9.7 11.3 0.00 0.00 0.00 42 1016.9
20260502203603 20 62 4.8 14.5 0.00 0.00 0.00 40 1016.9
20260502203103 20 52 6.4 16.1 0.00 0.00 0.00 45 1016.9
20260502202603 20 45 4.8 11.3 0.00 0.00 0.00 44 1017.0
20260502202104 20 74 9.7 14.5 0.00 0.00 0.00 43 1016.9
20260502201603 20 43 4.8 14.5 0.00 0.00 0.00 50 1016.9
20260502201103 20 44 3.2 14.5 0.00 0.00 0.00 50 1017.3
20260502200604 20 69 8.0 19.3 0.00 0.00 0.00 50 1017.4
20260502195603 19 68 8.0 14.5 0.00 0.00 0.00 50 1017.6
20260502195104 19 82 8.0 14.5 0.00 0.00 0.00 51 1017.6
20260502194104 20 50 6.4 11.3 0.00 0.00 0.00 52 1017.6
20260502193603 19 78 3.2 8.0 0.00 0.00 0.00 50 1017.7
20260502193103 19 62 8.0 11.3 0.00 0.00 0.00 50 1017.8
20260502192603 19 69 8.0 19.3 0.00 0.00 0.00 49 1017.9
20260502192103 19 66 8.0 19.3 0.00 0.00 0.00 50 1017.8
20260502191604 19 73 4.8 14.5 0.00 0.00 0.00 52 1017.8
20260502191103 19 71 4.8 19.3 0.00 0.00 0.00 51 1017.9
20260502184604 18 74 11.3 19.3 0.00 0.00 0.00 51 1018.3
20260502184103 18 94 11.3 19.3 0.00 0.00 0.00 56 1018.1
20260502183603 18 88 12.9 19.3 0.00 0.00 0.00 55 1018.1
20260502182604 18 93 12.9 19.3 0.00 0.00 0.00 54 1018.1
20260502182104 18 101 14.5 19.3 0.00 0.00 0.00 55 1018.3
20260502181604 18 91 11.3 19.3 0.00 0.00 0.00 53 1018.3
20260502181103 18 94 14.5 19.3 0.00 0.00 0.00 55 1018.2
20260502180603 18 86 11.3 19.3 0.00 0.00 0.00 58 1018.0
20260502170104 16 92 14.5 19.3 0.00 0.00 0.00 63 1018.4
20260502164103 15 90 11.3 16.1 0.00 0.00 0.00 65 1018.7
20260502163605 15 87 11.3 16.1 0.00 0.00 0.00 66 1018.8
20260502162604 15 96 11.3 16.1 0.00 0.00 0.00 67 1018.7
20260502162103 15 97 11.3 14.5 0.00 0.00 0.00 67 1018.8
20260502161604 14 97 9.7 16.1 0.00 0.00 0.00 68 1019.1
20260502161104 14 95 11.3 16.1 0.00 0.00 0.00 67 1019.0
20260502160604 13 100 9.7 14.5 0.00 0.00 0.00 68 1018.6
20260502152103 12 107 8.0 11.3 0.00 0.00 0.00 67 1019.1
20260502151603 12 109 9.7 11.3 0.00 0.00 0.00 68 1019.1
20260502151104 11 115 8.0 11.3 0.00 0.00 0.00 69 1019.0
20260502150603 11 113 8.0 9.7 0.00 0.00 0.00 67 1018.7
20260502150103 11 113 8.0 9.7 0.00 0.00 0.00 67 1018.7
20260502140104 9 132 0.0 1.6 0.00 0.00 0.00 72 1018.5
20260502130603 9 136 4.8 4.8 0.00 0.00 0.00 63 1018.0
20260502123604 10 138 3.2 4.8 0.00 0.00 0.00 59 1017.8
20260502123103 10 138 4.8 4.8 0.00 0.00 0.00 60 1017.8
20260502122604 9 138 4.8 8.0 0.00 0.00 0.00 62 1018.0
20260502122103 8 157 4.8 8.0 0.00 0.00 0.00 64 1018.0
20260502121104 9 164 0.0 0.0 0.00 0.00 0.00 63 1017.8
20260502120603 8 164 0.0 3.2 0.00 0.00 0.00 63 1017.6
20260502115605 8 164 3.2 4.8 0.00 0.00 0.00 66 1017.6
20260502115103 8 164 3.2 4.8 0.00 0.00 0.00 65 1017.5
20260502114603 9 164 3.2 4.8 0.00 0.00 0.00 63 1017.5
20260502114103 9 164 1.6 3.2 0.00 0.00 0.00 62 1017.5
20260502113603 9 164 1.6 3.2 0.00 0.00 0.00 64 1017.6
20260502113104 9 164 1.6 3.2 0.00 0.00 0.00 62 1017.6
20260502112603 9 164 1.6 4.8 0.00 0.00 0.00 63 1017.6
20260502112103 9 164 1.6 3.2 0.00 0.00 0.00 63 1017.6
20260502111603 9 164 1.6 3.2 0.00 0.00 0.00 61 1017.6
20260502111103 9 164 1.6 3.2 0.00 0.00 0.00 62 1017.6
20260502110603 9 164 1.6 3.2 0.00 0.00 0.00 63 1017.6
20260502110104 8 164 1.6 3.2 0.00 0.00 0.00 63 1017.9
20260502105603 9 164 3.2 4.8 0.00 0.00 0.00 63 1017.7
20260502105104 10 164 1.6 4.8 0.00 0.00 0.00 62 1017.6
20260502104603 10 164 3.2 4.8 0.00 0.00 0.00 60 1017.7
20260502104104 10 164 3.2 4.8 0.00 0.00 0.00 60 1017.6
20260502103603 10 165 3.2 4.8 0.00 0.00 0.00 63 1017.6
20260502103103 10 165 3.2 4.8 0.00 0.00 0.00 61 1017.7
20260502102604 9 165 3.2 4.8 0.00 0.00 0.00 60 1017.8
20260502102103 9 165 3.2 4.8 0.00 0.00 0.00 63 1017.8
20260502101604 9 165 1.6 4.8 0.00 0.00 0.00 65 1017.7
20260502101104 10 165 3.2 4.8 0.00 0.00 0.00 62 1017.6
20260502100104 11 165 3.2 4.8 0.00 0.00 0.00 54 1017.4
20260502090604 10 190 8.0 9.7 0.00 0.00 0.00 61 1018.0
20260502090104 10 193 8.0 8.0 0.00 0.00 0.00 62 1018.1
20260502071104 9 215 4.8 4.8 0.00 0.00 0.00 70 1018.6
20260502070103 9 215 3.2 8.0 0.00 0.00 0.00 69 1018.6
20260502065604 9 218 4.8 8.0 0.00 0.00 0.00 70 1018.6
20260502065105 8 222 3.2 4.8 0.00 0.00 0.00 72 1018.8
20260502064603 9 223 4.8 4.8 0.00 0.00 0.00 72 1018.6
20260502063603 10 222 3.2 4.8 0.00 0.00 0.00 68 1018.4
20260502063104 10 225 4.8 4.8 0.00 0.00 0.00 68 1018.4
20260502062603 10 227 4.8 4.8 0.00 0.00 0.00 66 1018.4
20260502062104 10 227 4.8 4.8 0.00 0.00 0.00 67 1018.2
20260502061603 10 227 3.2 4.8 0.00 0.00 0.00 67 1018.2
20260502061104 10 227 3.2 4.8 0.00 0.00 0.00 67 1018.2
20260502060603 10 227 3.2 4.8 0.00 0.00 0.00 66 1018.4
20260502060104 10 227 3.2 4.8 0.00 0.00 0.00 67 1018.4
20260502055104 10 227 3.2 4.8 0.00 0.00 0.00 68 1018.5
20260502054603 10 227 3.2 4.8 0.00 0.00 0.00 67 1018.5
20260502054104 10 227 4.8 4.8 0.00 0.00 0.00 70 1018.4
20260502053104 10 233 3.2 4.8 0.00 0.00 0.00 72 1018.5
20260502052603 10 211 1.6 8.0 0.00 0.00 0.00 71 1018.6
20260502052103 10 192 4.8 4.8 0.00 0.00 0.00 72 1018.5
20260502051604 10 192 3.2 4.8 0.00 0.00 0.00 71 1018.5
20260502051103 10 192 3.2 4.8 0.00 0.00 0.00 70 1018.7